Year,Month,Day,Hour,Minute,Value (Times are PST for temperature in C)
2017,06,26,00,00,21.90
2017,06,26,00,01,21.80
2017,06,26,00,02,21.80
2017,06,26,00,03,21.70
2017,06,26,00,04,21.70
2017,06,26,00,05,21.60
2017,06,26,00,06,21.60
2017,06,26,00,07,21.60
2017,06,26,00,08,21.50
2017,06,26,00,09,21.50
2017,06,26,00,10,21.40
2017,06,26,00,11,21.40
2017,06,26,00,12,21.40
2017,06,26,00,13,21.30
2017,06,26,00,14,21.30
2017,06,26,00,15,21.30
2017,06,26,00,16,21.30
2017,06,26,00,17,21.20
2017,06,26,00,18,21.20
2017,06,26,00,19,21.20
2017,06,26,00,20,21.10
2017,06,26,00,21,21.10
2017,06,26,00,22,21.10
2017,06,26,00,23,21.00
2017,06,26,00,24,21.00
2017,06,26,00,25,21.00
2017,06,26,00,26,20.90
2017,06,26,00,27,20.90
2017,06,26,00,28,20.90
2017,06,26,00,29,20.90
2017,06,26,00,30,20.90
2017,06,26,00,31,20.80
2017,06,26,00,32,20.80
2017,06,26,00,33,20.80
2017,06,26,00,34,20.80
2017,06,26,00,35,20.80
2017,06,26,00,36,20.80
2017,06,26,00,37,20.70
2017,06,26,00,38,20.70
2017,06,26,00,39,20.70
2017,06,26,00,40,20.60
2017,06,26,00,41,20.60
2017,06,26,00,42,20.60
2017,06,26,00,43,20.60
2017,06,26,00,44,20.60
2017,06,26,00,45,20.50
2017,06,26,00,46,20.50
2017,06,26,00,47,20.50
2017,06,26,00,48,20.50
2017,06,26,00,49,20.40
2017,06,26,00,50,20.40
2017,06,26,00,51,20.40
2017,06,26,00,52,20.40
2017,06,26,00,53,20.40
2017,06,26,00,54,20.40
2017,06,26,00,55,20.40
2017,06,26,00,56,20.30
2017,06,26,00,57,20.30
2017,06,26,00,58,20.30
2017,06,26,00,59,20.30
2017,06,26,01,00,20.30
2017,06,26,01,01,20.20
2017,06,26,01,02,20.20
2017,06,26,01,03,20.20
2017,06,26,01,04,20.10
2017,06,26,01,05,20.10
2017,06,26,01,06,20.10
2017,06,26,01,07,20.10
2017,06,26,01,08,20.10
2017,06,26,01,09,20.10
2017,06,26,01,10,20.10
2017,06,26,01,11,20.10
2017,06,26,01,12,20.10
2017,06,26,01,13,20.10
2017,06,26,01,14,20.10
2017,06,26,01,15,20.10
2017,06,26,01,16,20.10
2017,06,26,01,17,20.10
2017,06,26,01,18,20.10
2017,06,26,01,19,20.10
2017,06,26,01,20,20.10
2017,06,26,01,21,20.10
2017,06,26,01,22,20.00
2017,06,26,01,23,20.00
2017,06,26,01,24,20.00
2017,06,26,01,25,19.90
2017,06,26,01,26,19.90
2017,06,26,01,27,19.90
2017,06,26,01,28,19.90
2017,06,26,01,29,19.90
2017,06,26,01,30,19.90
2017,06,26,01,31,19.90
2017,06,26,01,32,19.90
2017,06,26,01,33,19.90
2017,06,26,01,34,19.90
2017,06,26,01,35,19.90
2017,06,26,01,36,19.90
2017,06,26,01,37,19.90
2017,06,26,01,38,19.90
2017,06,26,01,39,19.90
2017,06,26,01,40,19.90
2017,06,26,01,41,19.90
2017,06,26,01,42,19.90
2017,06,26,01,43,19.90
2017,06,26,01,44,19.90
2017,06,26,01,45,19.90
2017,06,26,01,46,19.90
2017,06,26,01,47,19.80
2017,06,26,01,48,19.80
2017,06,26,01,49,19.80
2017,06,26,01,50,19.80
2017,06,26,01,51,19.80
2017,06,26,01,52,19.80
2017,06,26,01,53,19.80
2017,06,26,01,54,19.80
2017,06,26,01,55,19.90
2017,06,26,01,56,19.80
2017,06,26,01,57,19.90
2017,06,26,01,58,19.90
2017,06,26,01,59,19.90
2017,06,26,02,00,20.00
2017,06,26,02,01,20.10
2017,06,26,02,02,20.20
2017,06,26,02,03,20.20
2017,06,26,02,04,20.30
2017,06,26,02,05,20.30
2017,06,26,02,06,20.40
2017,06,26,02,07,20.40
2017,06,26,02,08,20.30
2017,06,26,02,09,20.30
2017,06,26,02,10,20.30
2017,06,26,02,11,20.30
2017,06,26,02,12,20.30
2017,06,26,02,13,20.30
2017,06,26,02,14,20.30
2017,06,26,02,15,20.30
2017,06,26,02,16,20.40
2017,06,26,02,17,20.40
2017,06,26,02,18,20.40
2017,06,26,02,19,20.40
2017,06,26,02,20,20.40
2017,06,26,02,21,20.40
2017,06,26,02,22,20.40
2017,06,26,02,23,20.30
2017,06,26,02,24,20.40
2017,06,26,02,25,20.40
2017,06,26,02,26,20.40
2017,06,26,02,27,20.40
2017,06,26,02,28,20.40
2017,06,26,02,29,20.50
2017,06,26,02,30,20.50
2017,06,26,02,31,20.50
2017,06,26,02,32,20.50
2017,06,26,02,33,20.50
2017,06,26,02,34,20.50
2017,06,26,02,35,20.50
2017,06,26,02,36,20.40
2017,06,26,02,37,20.40
2017,06,26,02,38,20.40
2017,06,26,02,39,20.40
2017,06,26,02,40,20.40
2017,06,26,02,41,20.30
2017,06,26,02,42,20.30
2017,06,26,02,43,20.30
2017,06,26,02,44,20.30
2017,06,26,02,45,20.30
2017,06,26,02,46,20.30
2017,06,26,02,47,20.40
2017,06,26,02,48,20.50
2017,06,26,02,49,20.60
2017,06,26,02,50,20.70
2017,06,26,02,51,20.70
2017,06,26,02,52,20.70
2017,06,26,02,53,20.80
2017,06,26,02,54,20.80
2017,06,26,02,55,20.80
2017,06,26,02,56,20.80
2017,06,26,02,57,20.70
2017,06,26,02,58,20.70
2017,06,26,02,59,20.70
2017,06,26,03,00,20.60
2017,06,26,03,01,20.60
2017,06,26,03,02,20.60
2017,06,26,03,03,20.50
2017,06,26,03,04,20.50
2017,06,26,03,05,20.40
2017,06,26,03,06,20.40
2017,06,26,03,07,20.40
2017,06,26,03,08,20.40
2017,06,26,03,09,20.40
2017,06,26,03,10,20.30
2017,06,26,03,11,20.30
2017,06,26,03,12,20.40
2017,06,26,03,13,20.40
2017,06,26,03,14,20.40
2017,06,26,03,15,20.40
2017,06,26,03,16,20.50
2017,06,26,03,17,20.60
2017,06,26,03,18,20.60
2017,06,26,03,19,20.60
2017,06,26,03,20,20.60
2017,06,26,03,21,20.70
2017,06,26,03,22,20.70
2017,06,26,03,23,20.70
2017,06,26,03,24,20.60
2017,06,26,03,25,20.50
2017,06,26,03,26,20.30
2017,06,26,03,27,20.20
2017,06,26,03,28,20.10
2017,06,26,03,29,20.00
2017,06,26,03,30,20.00
2017,06,26,03,31,19.90
2017,06,26,03,32,19.80
2017,06,26,03,33,19.80
2017,06,26,03,34,19.70
2017,06,26,03,35,19.70
2017,06,26,03,36,19.70
2017,06,26,03,37,19.70
2017,06,26,03,38,19.70
2017,06,26,03,39,19.70
2017,06,26,03,40,19.70
2017,06,26,03,41,19.70
2017,06,26,03,42,19.70
2017,06,26,03,43,19.70
2017,06,26,03,44,19.70
2017,06,26,03,45,19.60
2017,06,26,03,46,19.60
2017,06,26,03,47,19.60
2017,06,26,03,48,19.60
2017,06,26,03,49,19.60
2017,06,26,03,50,19.50
2017,06,26,03,51,19.50
2017,06,26,03,52,19.50
2017,06,26,03,53,19.50
2017,06,26,03,54,19.40
2017,06,26,03,55,19.40
2017,06,26,03,56,19.40
2017,06,26,03,57,19.40
2017,06,26,03,58,19.40
2017,06,26,03,59,19.40
2017,06,26,04,00,19.40
2017,06,26,04,01,19.30
2017,06,26,04,02,19.30
2017,06,26,04,03,19.30
2017,06,26,04,04,19.30
2017,06,26,04,05,19.20
2017,06,26,04,06,19.20
2017,06,26,04,07,19.10
2017,06,26,04,08,19.10
2017,06,26,04,09,19.10
2017,06,26,04,10,19.00
2017,06,26,04,11,19.00
2017,06,26,04,12,18.90
2017,06,26,04,13,18.90
2017,06,26,04,14,18.90
2017,06,26,04,15,18.80
2017,06,26,04,16,18.80
2017,06,26,04,17,18.80
2017,06,26,04,18,18.80
2017,06,26,04,19,18.80
2017,06,26,04,20,18.80
2017,06,26,04,21,18.80
2017,06,26,04,22,18.80
2017,06,26,04,23,18.70
2017,06,26,04,24,18.70
2017,06,26,04,25,18.70
2017,06,26,04,26,18.60
2017,06,26,04,27,18.60
2017,06,26,04,28,18.60
2017,06,26,04,29,18.50
2017,06,26,04,30,18.50
2017,06,26,04,31,18.60
2017,06,26,04,32,18.60
2017,06,26,04,33,18.70
2017,06,26,04,34,18.70
2017,06,26,04,35,18.80
2017,06,26,04,36,18.80
2017,06,26,04,37,18.90
2017,06,26,04,38,19.00
2017,06,26,04,39,19.00
2017,06,26,04,40,19.00
2017,06,26,04,41,19.00
2017,06,26,04,42,19.00
2017,06,26,04,43,19.00
2017,06,26,04,44,19.00
2017,06,26,04,45,19.00
2017,06,26,04,46,18.90
2017,06,26,04,47,18.70
2017,06,26,04,48,18.60
2017,06,26,04,49,18.60
2017,06,26,04,50,18.50
2017,06,26,04,51,18.50
2017,06,26,04,52,18.40
2017,06,26,04,53,18.40
2017,06,26,04,54,18.30
2017,06,26,04,55,18.30
2017,06,26,04,56,18.30
2017,06,26,04,57,18.20
2017,06,26,04,58,18.20
2017,06,26,04,59,18.20
2017,06,26,05,00,18.20
2017,06,26,05,01,18.10
2017,06,26,05,02,18.10
2017,06,26,05,03,18.00
2017,06,26,05,04,17.90
2017,06,26,05,05,17.90
2017,06,26,05,06,17.90
2017,06,26,05,07,17.80
2017,06,26,05,08,17.80
2017,06,26,05,09,17.80
2017,06,26,05,10,17.70
2017,06,26,05,11,17.70
2017,06,26,05,12,17.70
2017,06,26,05,13,17.70
2017,06,26,05,14,17.60
2017,06,26,05,15,17.50
2017,06,26,05,16,17.40
2017,06,26,05,17,17.30
2017,06,26,05,18,17.30
2017,06,26,05,19,17.20
2017,06,26,05,20,17.20
2017,06,26,05,21,17.10
2017,06,26,05,22,17.10
2017,06,26,05,23,17.10
2017,06,26,05,24,17.00
2017,06,26,05,25,16.90
2017,06,26,05,26,16.90
2017,06,26,05,27,16.90
2017,06,26,05,28,16.80
2017,06,26,05,29,16.80
2017,06,26,05,30,16.80
2017,06,26,05,31,16.70
2017,06,26,05,32,16.70
2017,06,26,05,33,16.70
2017,06,26,05,34,16.60
2017,06,26,05,35,16.60
2017,06,26,05,36,16.60
2017,06,26,05,37,16.60
2017,06,26,05,38,16.50
2017,06,26,05,39,16.50
2017,06,26,05,40,16.50
2017,06,26,05,41,16.50
2017,06,26,05,42,16.50
2017,06,26,05,43,16.40
2017,06,26,05,44,16.40
2017,06,26,05,45,16.40
2017,06,26,05,46,16.40
2017,06,26,05,47,16.40
2017,06,26,05,48,16.40
2017,06,26,05,49,16.40
2017,06,26,05,50,16.30
2017,06,26,05,51,16.30
2017,06,26,05,52,16.40
2017,06,26,05,53,16.40
2017,06,26,05,54,16.50
2017,06,26,05,55,16.50
2017,06,26,05,56,16.60
2017,06,26,05,57,16.60
2017,06,26,05,58,16.60
2017,06,26,05,59,16.60
2017,06,26,06,00,16.60
2017,06,26,06,01,16.50
2017,06,26,06,02,16.50
2017,06,26,06,03,16.40
2017,06,26,06,04,16.30
2017,06,26,06,05,16.30
2017,06,26,06,06,16.30
2017,06,26,06,07,16.20
2017,06,26,06,08,16.20
2017,06,26,06,09,16.10
2017,06,26,06,10,16.10
2017,06,26,06,11,16.10
2017,06,26,06,12,16.00
2017,06,26,06,13,16.00
2017,06,26,06,14,16.00
2017,06,26,06,15,15.90
2017,06,26,06,16,15.90
2017,06,26,06,17,15.90
2017,06,26,06,18,15.90
2017,06,26,06,19,15.90
2017,06,26,06,20,15.90
2017,06,26,06,21,15.90
2017,06,26,06,22,15.80
2017,06,26,06,23,15.80
2017,06,26,06,24,15.80
2017,06,26,06,25,15.80
2017,06,26,06,26,15.80
2017,06,26,06,27,15.80
2017,06,26,06,28,15.80
2017,06,26,06,29,15.70
2017,06,26,06,30,15.70
2017,06,26,06,31,15.70
2017,06,26,06,32,15.70
2017,06,26,06,33,15.70
2017,06,26,06,34,15.70
2017,06,26,06,35,15.70
2017,06,26,06,36,15.70
2017,06,26,06,37,15.70
2017,06,26,06,38,15.60
2017,06,26,06,39,15.60
2017,06,26,06,40,15.60
2017,06,26,06,41,15.60
2017,06,26,06,42,15.60
2017,06,26,06,43,15.60
2017,06,26,06,44,15.60
2017,06,26,06,45,15.60
2017,06,26,06,46,15.60
2017,06,26,06,47,15.60
2017,06,26,06,48,15.60
2017,06,26,06,49,15.60
2017,06,26,06,50,15.60
2017,06,26,06,51,15.60
2017,06,26,06,52,15.60
2017,06,26,06,53,15.60
2017,06,26,06,54,15.60
2017,06,26,06,55,15.60
2017,06,26,06,56,15.60
2017,06,26,06,57,15.60
2017,06,26,06,58,15.60
2017,06,26,06,59,15.60
2017,06,26,07,00,15.60
2017,06,26,07,01,15.60
2017,06,26,07,02,15.60
2017,06,26,07,03,15.60
2017,06,26,07,04,15.60
2017,06,26,07,05,15.60
2017,06,26,07,06,15.60
2017,06,26,07,07,15.60
2017,06,26,07,08,15.60
2017,06,26,07,09,15.60
2017,06,26,07,10,15.60
2017,06,26,07,11,15.60
2017,06,26,07,12,15.60
2017,06,26,07,13,15.60
2017,06,26,07,14,15.70
2017,06,26,07,15,15.70
2017,06,26,07,16,15.70
2017,06,26,07,17,15.70
2017,06,26,07,18,15.70
2017,06,26,07,19,15.70
2017,06,26,07,20,15.70
2017,06,26,07,21,15.70
2017,06,26,07,22,15.70
2017,06,26,07,23,15.70
2017,06,26,07,24,15.70
2017,06,26,07,25,15.70
2017,06,26,07,26,15.70
2017,06,26,07,27,15.70
2017,06,26,07,28,15.70
2017,06,26,07,29,15.70
2017,06,26,07,30,15.70
2017,06,26,07,31,15.70
2017,06,26,07,32,15.70
2017,06,26,07,33,15.70
2017,06,26,07,34,15.70
2017,06,26,07,35,15.70
2017,06,26,07,36,15.70
2017,06,26,07,37,15.70
2017,06,26,07,38,15.70
2017,06,26,07,39,15.70
2017,06,26,07,40,15.70
2017,06,26,07,41,15.70
2017,06,26,07,42,15.70
2017,06,26,07,43,15.70
2017,06,26,07,44,15.70
2017,06,26,07,45,15.80
2017,06,26,07,46,15.80
2017,06,26,07,47,15.80
2017,06,26,07,48,15.80
2017,06,26,07,49,15.80
2017,06,26,07,50,15.80
2017,06,26,07,51,15.80
2017,06,26,07,52,15.80
2017,06,26,07,53,15.80
2017,06,26,07,54,15.80
2017,06,26,07,55,15.80
2017,06,26,07,56,15.80
2017,06,26,07,57,15.80
2017,06,26,07,58,15.90
2017,06,26,07,59,15.90
2017,06,26,08,00,15.90
2017,06,26,08,01,15.90
2017,06,26,08,02,15.90
2017,06,26,08,03,15.90
2017,06,26,08,04,15.90
2017,06,26,08,05,15.90
2017,06,26,08,06,15.90
2017,06,26,08,07,15.90
2017,06,26,08,08,16.00
2017,06,26,08,09,16.00
2017,06,26,08,10,16.00
2017,06,26,08,11,16.00
2017,06,26,08,12,16.00
2017,06,26,08,13,16.00
2017,06,26,08,14,16.00
2017,06,26,08,15,16.00
2017,06,26,08,16,16.00
2017,06,26,08,17,15.90
2017,06,26,08,18,15.90
2017,06,26,08,19,15.90
2017,06,26,08,20,15.90
2017,06,26,08,21,15.90
2017,06,26,08,22,15.90
2017,06,26,08,23,15.90
2017,06,26,08,24,15.90
2017,06,26,08,25,15.90
2017,06,26,08,26,15.90
2017,06,26,08,27,15.90
2017,06,26,08,28,15.90
2017,06,26,08,29,15.90
2017,06,26,08,30,15.90
2017,06,26,08,31,15.80
2017,06,26,08,32,15.80
2017,06,26,08,33,15.80
2017,06,26,08,34,15.90
2017,06,26,08,35,15.90
2017,06,26,08,36,15.90
2017,06,26,08,37,15.90
2017,06,26,08,38,15.90
2017,06,26,08,39,15.90
2017,06,26,08,40,15.90
2017,06,26,08,41,16.00
2017,06,26,08,42,16.00
2017,06,26,08,43,16.10
2017,06,26,08,44,16.10
2017,06,26,08,45,16.20
2017,06,26,08,46,16.30
2017,06,26,08,47,16.30
2017,06,26,08,48,16.40
2017,06,26,08,49,16.50
2017,06,26,08,50,16.60
2017,06,26,08,51,16.60
2017,06,26,08,52,16.70
2017,06,26,08,53,16.80
2017,06,26,08,54,16.80
2017,06,26,08,55,16.90
2017,06,26,08,56,16.90
2017,06,26,08,57,17.00
2017,06,26,08,58,17.10
2017,06,26,08,59,17.10
2017,06,26,09,00,17.20
2017,06,26,09,01,17.20
2017,06,26,09,02,17.20
2017,06,26,09,03,17.20
2017,06,26,09,04,17.20
2017,06,26,09,05,17.20
2017,06,26,09,06,17.20
2017,06,26,09,07,17.20
2017,06,26,09,08,17.20
2017,06,26,09,09,17.30
2017,06,26,09,10,17.40
2017,06,26,09,11,17.60
2017,06,26,09,12,17.60
2017,06,26,09,13,17.70
2017,06,26,09,14,17.70
2017,06,26,09,15,17.70
2017,06,26,09,16,17.80
2017,06,26,09,17,17.80
2017,06,26,09,18,17.90
2017,06,26,09,19,18.00
2017,06,26,09,20,18.00
2017,06,26,09,21,18.10
2017,06,26,09,22,18.20
2017,06,26,09,23,18.20
2017,06,26,09,24,18.20
2017,06,26,09,25,18.30
2017,06,26,09,26,18.30
2017,06,26,09,27,18.40
2017,06,26,09,28,18.40
2017,06,26,09,29,18.50
2017,06,26,09,30,18.60
2017,06,26,09,31,18.70
2017,06,26,09,32,18.80
2017,06,26,09,33,18.90
2017,06,26,09,34,19.00
2017,06,26,09,35,19.10
2017,06,26,09,36,19.20
2017,06,26,09,37,19.30
2017,06,26,09,38,19.30
2017,06,26,09,39,19.30
2017,06,26,09,40,19.30
2017,06,26,09,41,19.30
2017,06,26,09,42,19.30
2017,06,26,09,43,19.40
2017,06,26,09,44,19.40
2017,06,26,09,45,19.50
2017,06,26,09,46,19.60
2017,06,26,09,47,19.70
2017,06,26,09,48,19.80
2017,06,26,09,49,19.80
2017,06,26,09,50,19.80
2017,06,26,09,51,19.80
2017,06,26,09,52,19.80
2017,06,26,09,53,19.90
2017,06,26,09,54,19.90
2017,06,26,09,55,19.90
2017,06,26,09,56,19.90
2017,06,26,09,57,19.90
2017,06,26,09,58,19.90
2017,06,26,09,59,19.90
2017,06,26,10,00,19.90
2017,06,26,10,01,19.90
2017,06,26,10,02,20.00
2017,06,26,10,03,20.00
2017,06,26,10,04,20.10
2017,06,26,10,05,20.10
2017,06,26,10,06,20.20
2017,06,26,10,07,20.20
2017,06,26,10,08,20.20
2017,06,26,10,09,20.30
2017,06,26,10,10,20.30
2017,06,26,10,11,20.40
2017,06,26,10,12,20.50
2017,06,26,10,13,20.70
2017,06,26,10,14,20.70
2017,06,26,10,15,20.80
2017,06,26,10,16,20.80
2017,06,26,10,17,20.80
2017,06,26,10,18,20.80
2017,06,26,10,19,20.70
2017,06,26,10,20,20.70
2017,06,26,10,21,20.70
2017,06,26,10,22,20.70
2017,06,26,10,23,20.70
2017,06,26,10,24,20.70
2017,06,26,10,25,20.70
2017,06,26,10,26,20.80
2017,06,26,10,27,20.80
2017,06,26,10,28,20.90
2017,06,26,10,29,20.90
2017,06,26,10,30,21.00
2017,06,26,10,31,21.10
2017,06,26,10,32,21.10
2017,06,26,10,33,21.20
2017,06,26,10,34,21.30
2017,06,26,10,35,21.30
2017,06,26,10,36,21.40
2017,06,26,10,37,21.40
2017,06,26,10,38,21.40
2017,06,26,10,39,21.50
2017,06,26,10,40,21.50
2017,06,26,10,41,21.60
2017,06,26,10,42,21.60
2017,06,26,10,43,21.60
2017,06,26,10,44,21.70
2017,06,26,10,45,21.70
2017,06,26,10,46,21.60
2017,06,26,10,47,21.60
2017,06,26,10,48,21.60
2017,06,26,10,49,21.60
2017,06,26,10,50,21.60
2017,06,26,10,51,21.70
2017,06,26,10,52,21.60
2017,06,26,10,53,21.60
2017,06,26,10,54,21.70
2017,06,26,10,55,21.70
2017,06,26,10,56,21.80
2017,06,26,10,57,21.90
2017,06,26,10,58,22.00
2017,06,26,10,59,22.10
2017,06,26,11,00,22.10
2017,06,26,11,01,22.20
2017,06,26,11,02,22.20
2017,06,26,11,03,22.30
2017,06,26,11,04,22.30
2017,06,26,11,05,22.40
2017,06,26,11,06,22.50
2017,06,26,11,07,22.50
2017,06,26,11,08,22.60
2017,06,26,11,09,22.60
2017,06,26,11,10,22.60
2017,06,26,11,11,22.60
2017,06,26,11,12,22.60
2017,06,26,11,13,22.50
2017,06,26,11,14,22.50
2017,06,26,11,15,22.50
2017,06,26,11,16,22.50
2017,06,26,11,17,22.50
2017,06,26,11,18,22.60
2017,06,26,11,19,22.70
2017,06,26,11,20,22.80
2017,06,26,11,21,22.80
2017,06,26,11,22,22.90
2017,06,26,11,23,22.90
2017,06,26,11,24,22.90
2017,06,26,11,25,22.90
2017,06,26,11,26,22.90
2017,06,26,11,27,22.90
2017,06,26,11,28,22.90
2017,06,26,11,29,22.80
2017,06,26,11,30,22.80
2017,06,26,11,31,22.70
2017,06,26,11,32,22.70
2017,06,26,11,33,22.60
2017,06,26,11,34,22.60
2017,06,26,11,35,22.50
2017,06,26,11,36,22.40
2017,06,26,11,37,22.50
2017,06,26,11,38,22.50
2017,06,26,11,39,22.50
2017,06,26,11,40,22.60
2017,06,26,11,41,22.50
2017,06,26,11,42,22.50
2017,06,26,11,43,22.50
2017,06,26,11,44,22.60
2017,06,26,11,45,22.60
2017,06,26,11,46,22.60
2017,06,26,11,47,22.60
2017,06,26,11,48,22.60
2017,06,26,11,49,22.70
2017,06,26,11,50,22.80
2017,06,26,11,51,22.80
2017,06,26,11,52,22.70
2017,06,26,11,53,22.70
2017,06,26,11,54,22.60
2017,06,26,11,55,22.60
2017,06,26,11,56,22.60
2017,06,26,11,57,22.60
2017,06,26,11,58,22.60
2017,06,26,11,59,22.70
2017,06,26,12,00,22.70
2017,06,26,12,01,22.80
2017,06,26,12,02,22.80
2017,06,26,12,03,22.80
2017,06,26,12,04,22.80
2017,06,26,12,05,22.80
2017,06,26,12,06,22.90
2017,06,26,12,07,23.00
2017,06,26,12,08,23.10
2017,06,26,12,09,23.10
2017,06,26,12,10,23.20
2017,06,26,12,11,23.20
2017,06,26,12,12,23.20
2017,06,26,12,13,23.20
2017,06,26,12,14,23.30
2017,06,26,12,15,23.30
2017,06,26,12,16,23.30
2017,06,26,12,17,23.30
2017,06,26,12,18,23.30
2017,06,26,12,19,23.40
2017,06,26,12,20,23.40
2017,06,26,12,21,23.40
2017,06,26,12,22,23.40
2017,06,26,12,23,23.40
2017,06,26,12,24,23.40
2017,06,26,12,25,23.50
2017,06,26,12,26,23.60
2017,06,26,12,27,23.50
2017,06,26,12,28,23.50
2017,06,26,12,29,23.50
2017,06,26,12,30,23.40
2017,06,26,12,31,23.50
2017,06,26,12,32,23.60
2017,06,26,12,33,23.60
2017,06,26,12,34,23.70
2017,06,26,12,35,23.80
2017,06,26,12,36,23.70
2017,06,26,12,37,23.70
2017,06,26,12,38,23.70
2017,06,26,12,39,23.80
2017,06,26,12,40,23.80
2017,06,26,12,41,23.80
2017,06,26,12,42,23.80
2017,06,26,12,43,23.80
2017,06,26,12,44,23.80
2017,06,26,12,45,23.80
2017,06,26,12,46,23.80
2017,06,26,12,47,23.90
2017,06,26,12,48,24.00
2017,06,26,12,49,24.10
2017,06,26,12,50,24.10
2017,06,26,12,51,24.20
2017,06,26,12,52,24.20
2017,06,26,12,53,24.20
2017,06,26,12,54,24.10
2017,06,26,12,55,24.20
2017,06,26,12,56,24.10
2017,06,26,12,57,24.10
2017,06,26,12,58,24.10
2017,06,26,12,59,24.10
2017,06,26,13,00,24.00
2017,06,26,13,01,24.00
2017,06,26,13,02,24.00
2017,06,26,13,03,24.00
2017,06,26,13,04,24.00
2017,06,26,13,05,24.10
2017,06,26,13,06,24.10
2017,06,26,13,07,24.00
2017,06,26,13,08,23.90
2017,06,26,13,09,23.90
2017,06,26,13,10,23.90
2017,06,26,13,11,23.90
2017,06,26,13,12,23.90
2017,06,26,13,13,24.00
2017,06,26,13,14,24.10
2017,06,26,13,15,24.00
2017,06,26,13,16,24.00
2017,06,26,13,17,24.10
2017,06,26,13,18,24.10
2017,06,26,13,19,24.10
2017,06,26,13,20,24.10
2017,06,26,13,21,24.10
2017,06,26,13,22,24.10
2017,06,26,13,23,24.10
2017,06,26,13,24,24.00
2017,06,26,13,25,24.00
2017,06,26,13,26,24.10
2017,06,26,13,27,24.10
2017,06,26,13,28,24.10
2017,06,26,13,29,24.00
2017,06,26,13,30,24.00
2017,06,26,13,31,24.00
2017,06,26,13,32,24.00
2017,06,26,13,33,24.00
2017,06,26,13,34,24.00
2017,06,26,13,35,24.00
2017,06,26,13,36,24.00
2017,06,26,13,37,24.00
2017,06,26,13,38,24.00
2017,06,26,13,39,24.00
2017,06,26,13,40,24.00
2017,06,26,13,41,23.90
2017,06,26,13,42,23.90
2017,06,26,13,43,23.90
2017,06,26,13,44,23.80
2017,06,26,13,45,23.80
2017,06,26,13,46,23.80
2017,06,26,13,47,23.80
2017,06,26,13,48,23.80
2017,06,26,13,49,23.90
2017,06,26,13,50,24.00
2017,06,26,13,51,24.00
2017,06,26,13,52,24.10
2017,06,26,13,53,24.10
2017,06,26,13,54,24.20
2017,06,26,13,55,24.20
2017,06,26,13,56,24.20
2017,06,26,13,57,24.20
2017,06,26,13,58,24.20
2017,06,26,13,59,24.20
2017,06,26,14,00,24.20
2017,06,26,14,01,24.20
2017,06,26,14,02,24.30
2017,06,26,14,03,24.40
2017,06,26,14,04,24.40
2017,06,26,14,05,24.60
2017,06,26,14,06,24.60
2017,06,26,14,07,24.70
2017,06,26,14,08,24.70
2017,06,26,14,09,24.70
2017,06,26,14,10,24.70
2017,06,26,14,11,24.70
2017,06,26,14,12,24.70
2017,06,26,14,13,24.70
2017,06,26,14,14,24.80
2017,06,26,14,15,24.80
2017,06,26,14,16,24.90
2017,06,26,14,17,25.00
2017,06,26,14,18,25.10
2017,06,26,14,19,25.20
2017,06,26,14,20,25.10
2017,06,26,14,21,25.10
2017,06,26,14,22,25.10
2017,06,26,14,23,25.20
2017,06,26,14,24,25.20
2017,06,26,14,25,25.20
2017,06,26,14,26,25.20
2017,06,26,14,27,25.10
2017,06,26,14,28,25.20
2017,06,26,14,29,25.20
2017,06,26,14,30,25.20
2017,06,26,14,31,25.20
2017,06,26,14,32,25.00
2017,06,26,14,33,24.90
2017,06,26,14,34,24.80
2017,06,26,14,35,24.80
2017,06,26,14,36,24.80
2017,06,26,14,37,24.60
2017,06,26,14,38,24.40
2017,06,26,14,39,24.30
2017,06,26,14,40,24.30
2017,06,26,14,41,24.30
2017,06,26,14,42,24.30
2017,06,26,14,43,24.40
2017,06,26,14,44,24.40
2017,06,26,14,45,24.50
2017,06,26,14,46,24.50
2017,06,26,14,47,24.50
2017,06,26,14,48,24.40
2017,06,26,14,49,24.30
2017,06,26,14,50,24.30
2017,06,26,14,51,24.40
2017,06,26,14,52,24.40
2017,06,26,14,53,24.50
2017,06,26,14,54,24.60
2017,06,26,14,55,24.60
2017,06,26,14,56,24.50
2017,06,26,14,57,24.40
2017,06,26,14,58,24.30
2017,06,26,14,59,24.20
2017,06,26,15,00,24.10
2017,06,26,15,01,24.00
2017,06,26,15,02,23.80
2017,06,26,15,03,23.80
2017,06,26,15,04,23.70
2017,06,26,15,05,23.60
2017,06,26,15,06,23.60
2017,06,26,15,07,23.60
2017,06,26,15,08,23.60
2017,06,26,15,09,23.70
2017,06,26,15,10,23.70
2017,06,26,15,11,23.70
2017,06,26,15,12,23.60
2017,06,26,15,13,23.50
2017,06,26,15,14,23.40
2017,06,26,15,15,23.40
2017,06,26,15,16,23.50
2017,06,26,15,17,23.50
2017,06,26,15,18,23.60
2017,06,26,15,19,23.60
2017,06,26,15,20,23.60
2017,06,26,15,21,23.70
2017,06,26,15,22,23.80
2017,06,26,15,23,24.00
2017,06,26,15,24,24.10
2017,06,26,15,25,24.20
2017,06,26,15,26,24.30
2017,06,26,15,27,24.40
2017,06,26,15,28,24.50
2017,06,26,15,29,24.50
2017,06,26,15,30,24.50
2017,06,26,15,31,24.40
2017,06,26,15,32,24.50
2017,06,26,15,33,24.50
2017,06,26,15,34,24.40
2017,06,26,15,35,24.40
2017,06,26,15,36,24.40
2017,06,26,15,37,24.40
2017,06,26,15,38,24.40
2017,06,26,15,39,24.40
2017,06,26,15,40,24.40
2017,06,26,15,41,24.40
2017,06,26,15,42,24.40
2017,06,26,15,43,24.40
2017,06,26,15,44,24.40
2017,06,26,15,45,24.30
2017,06,26,15,46,24.30
2017,06,26,15,47,24.30
2017,06,26,15,48,24.20
2017,06,26,15,49,24.10
2017,06,26,15,50,24.00
2017,06,26,15,51,24.00
2017,06,26,15,52,24.00
2017,06,26,15,53,24.10
2017,06,26,15,54,24.10
2017,06,26,15,55,24.20
2017,06,26,15,56,24.30
2017,06,26,15,57,24.30
2017,06,26,15,58,24.30
2017,06,26,15,59,24.40
2017,06,26,16,00,24.40
2017,06,26,16,01,24.30
2017,06,26,16,02,24.10
2017,06,26,16,03,24.10
2017,06,26,16,04,24.10
2017,06,26,16,05,24.10
2017,06,26,16,06,24.10
2017,06,26,16,07,24.10
2017,06,26,16,08,24.00
2017,06,26,16,09,24.00
2017,06,26,16,10,24.00
2017,06,26,16,11,24.10
2017,06,26,16,12,24.20
2017,06,26,16,13,24.20
2017,06,26,16,14,24.20
2017,06,26,16,15,24.30
2017,06,26,16,16,24.30
2017,06,26,16,17,24.20
2017,06,26,16,18,24.20
2017,06,26,16,19,24.20
2017,06,26,16,20,24.20
2017,06,26,16,21,24.20
2017,06,26,16,22,24.20
2017,06,26,16,23,24.10
2017,06,26,16,24,24.10
2017,06,26,16,25,24.10
2017,06,26,16,26,24.10
2017,06,26,16,27,24.10
2017,06,26,16,28,24.00
2017,06,26,16,29,23.90
2017,06,26,16,30,23.90
2017,06,26,16,31,23.80
2017,06,26,16,32,23.80
2017,06,26,16,33,23.70
2017,06,26,16,34,23.70
2017,06,26,16,35,23.70
2017,06,26,16,36,23.80
2017,06,26,16,37,23.80
2017,06,26,16,38,23.80
2017,06,26,16,39,23.70
2017,06,26,16,40,23.70
2017,06,26,16,41,23.70
2017,06,26,16,42,23.70
2017,06,26,16,43,23.70
2017,06,26,16,44,23.70
2017,06,26,16,45,23.70
2017,06,26,16,46,23.60
2017,06,26,16,47,23.60
2017,06,26,16,48,23.60
2017,06,26,16,49,23.70
2017,06,26,16,50,23.60
2017,06,26,16,51,23.70
2017,06,26,16,52,23.70
2017,06,26,16,53,23.70
2017,06,26,16,54,23.70
2017,06,26,16,55,23.70
2017,06,26,16,56,23.70
2017,06,26,16,57,23.70
2017,06,26,16,58,23.60
2017,06,26,16,59,23.50
2017,06,26,17,00,23.50
2017,06,26,17,01,23.50
2017,06,26,17,02,23.50
2017,06,26,17,03,23.50
2017,06,26,17,04,23.50
2017,06,26,17,05,23.40
2017,06,26,17,06,23.30
2017,06,26,17,07,23.20
2017,06,26,17,08,23.10
2017,06,26,17,09,23.10
2017,06,26,17,10,23.10
2017,06,26,17,11,23.10
2017,06,26,17,12,23.10
2017,06,26,17,13,23.00
2017,06,26,17,14,23.00
2017,06,26,17,15,23.00
2017,06,26,17,16,23.00
2017,06,26,17,17,23.10
2017,06,26,17,18,23.10
2017,06,26,17,19,23.20